Location: Althorst
(53.6379°N, 10.7715°E)
Time: 14:03:05
(UTC+00:00)

NOSS 3-4 (A) - Pass Details

Date: 10 December 2019
Orbit: 902 x 1310 km, 63.4° (Epoch: 10 January)

Event Time Altitude Azimuth Distance (km) Brightness Sun altitude
Rises 18:03:15 0° 266° (W) 3,577 7.8 -26.1°
Reaches altitude 10° 18:05:52 10° 274° (W) 2,669 6.8 -26.5°
Maximum altitude 18:11:44 41° 344° (NNW) 1,417 4.4 -27.4°
Enters shadow 18:13:20 36° 16° (NNE) 1,568 4.4 -27.6°
